Probability
0 0 0 0 1 1 1 0 0 0 0 0 0 0 0 0 0 0 0 0 0 0 0 0 0 0 0 0 0 0 0 0 0 0 0 0 0 0
0 0 0 0 0 1 0 0 0 0 0 0 0 0 0 0 0 0 0 0 0 0 0 0 0 0 0 0 0 0 0 0 0 0 0 0 0 0
1 1 1 1 1 2 1 0 0 0 0 0 0 0 0 0 0 0 0 0 0 0 0 0 0 0 0 0 0 0 0 0 0 0 0 0 0 0
3 3 3 2 3 3 2 1 0 0 0 0 0 0 0 0 0 0 0 0 0 0 0 0 0 0 0 0 0 0 0 0 0 0 0 0 0 0
7 6 5 4 4 3 3 2 0 0 0 0 0 0 0 0 0 0 0 0 0 0 0 0 0 0 0 0 0 0 0 0 0 0 0 0 0 0
11 9 6 5 5 4 3 2 1 0 0 0 0 0 0 0 0 0 0 0 0 0 0 0 0 0 0 0 0 0 0 0 0 0 0 0 0 0
13 12 9 7 6 4 3 3 2 1 1 1 0 0 0 1 1 0 0 0 0 0 0 0 0 0 0 0 0 0 0 0 0 0 0 0 0 0
13 14 12 9 6 5 3 3 2 2 2 2 1 1 1 1 2 1 0 0 0 0 0 0 0 0 0 0 0 0 0 0 0 0 0 0 0 0
12 12 12 9 7 6 4 3 2 3 3 3 3 2 1 1 2 2 1 0 0 0 0 0 0 0 0 0 0 0 0 0 0 0 0 0 0 0
9 10 9 8 7 7 6 4 3 3 3 3 3 2 1 0 1 1 1 0 1 1 0 0 0 0 0 0 0 0 0 0 0 0 0 0 0 0
7 7 8 7 6 7 7 6 4 3 3 2 2 2 1 0 0 1 1 2 2 2 1 0 0 0 0 0 0 0 0 0 0 0 0 0 0 0
6 7 7 6 5 4 5 6 5 4 3 3 2 1 1 1 1 1 2 3 3 3 2 2 2 1 0 1 1 1 1 1 0 0 0 0 0 0
6 7 7 6 3 2 3 4 4 4 4 4 3 3 2 2 2 1 2 2 3 3 3 4 4 3 2 2 2 2 2 1 0 0 0 0 0 0
7 7 6 4 1 0 1 2 2 2 4 4 4 4 4 4 3 3 2 3 3 3 3 5 5 5 5 4 3 3 2 1 0 0 0 0 0 0
7 5 4 3 1 0 0 0 0 1 3 4 4 5 5 5 4 4 3 3 3 2 3 4 4 5 6 5 2 1 1 1 0 0 0 0 0 0
3 2 2 2 2 2 3 2 1 1 2 3 4 5 6 6 6 5 4 4 3 2 2 2 3 3 4 5 3 1 0 0 0 0 0 0 0 0
0 0 1 2 5 6 6 5 3 3 3 4 5 6 7 7 8 6 6 5 4 2 2 2 2 2 3 4 4 2 1 0 0 0 0 1 0 0
1 1 1 3 6 7 7 6 5 5 5 5 6 6 7 8 9 8 6 5 4 2 2 2 2 3 3 3 3 3 2 1 0 0 0 0 0 0
2 2 3 4 5 6 6 5 4 4 4 4 4 5 5 6 6 6 5 5 4 3 3 3 3 3 3 3 3 3 3 2 1 0 0 0 0 0
3 3 3 4 4 4 3 3 1 1 1 1 1 2 2 2 2 3 4 5 4 3 3 3 3 3 3 3 3 3 3 3 2 1 0 0 0 0
3 3 3 3 3 2 1 1 0 0 0 0 0 0 0 0 0 1 3 4 4 3 3 3 3 3 3 3 3 3 3 2 2 1 0 0 0 0
3 3 2 2 1 1 0 0 0 0 0 0 0 0 0 0 0 1 2 3 3 3 3 3 3 3 3 3 3 3 2 1 1 1 0 0 0 0
3 2 1 1 0 0 0 0 0 0 0 0 0 0 0 0 0 0 1 2 3 3 3 3 3 3 3 3 3 3 2 1 0 0 0 0 0 0
Wind_Speed
1 1 1 1 1 2 3 4 4 3 2 2 1 0 1 1 2 2 2 4 4 4 4 3 3 2 2 2 3 3 4 4 4 4 4 4 4 4
1 1 1 1 1 1 2 2 3 4 3 2 2 1 2 3 3 2 2 4 4 4 4 3 3 2 3 4 4 3 3 4 4 4 4 4 3 3
1 2 2 1 1 1 1 2 2 3 3 1 0 1 2 2 2 1 1 1 1 4 3 3 2 3 3 3 3 3 3 3 3 3 3 2 2 3
2 2 2 1 1 1 1 2 2 2 4 3 1 1 1 2 2 2 2 2 1 3 3 3 3 3 3 3 3 2 2 2 2 2 2 2 2 2
3 3 3 2 2 2 2 2 2 2 2 3 2 1 1 2 2 2 2 1 1 2 2 2 3 3 2 2 2 2 2 2 1 1 1 1 1 1
3 3 3 3 3 3 2 3 3 3 3 3 3 2 1 1 2 2 1 0 1 1 1 1 2 2 2 2 2 2 2 2 2 2 1 1 1 1
2 2 2 3 4 4 3 3 4 3 3 3 3 2 2 2 3 2 2 1 1 1 1 0 0 0 1 2 2 2 3 3 3 3 3 2 2 2
3 2 2 2 3 3 4 5 6 6 6 4 3 4 4 4 3 3 3 2 2 2 2 1 1 2 2 2 3 4 4 4 4 4 4 3 3 3
4 3 3 2 3 2 3 3 3 5 8 6 6 5 5 5 5 4 4 4 3 3 2 2 2 3 3 3 6 5 5 5 5 5 5 5 4 4
4 5 4 3 3 4 4 2 2 3 5 5 6 6 5 5 7 6 5 3 1 1 3 2 2 3 3 3 6 6 5 5 5 5 6 6 5 5
3 4 5 5 6 6 5 4 2 2 2 4 5 5 6 6 5 3 3 3 1 2 2 2 2 2 2 2 4 6 6 5 5 5 6 6 6 4
2 3 5 6 7 8 6 5 4 3 2 2 2 2 3 4 6 6 5 4 2 2 3 3 2 2 1 2 2 2 3 5 5 4 4 5 5 3
3 3 3 6 7 8 7 6 7 5 3 3 2 2 2 2 3 4 4 5 4 4 4 4 2 2 2 2 2 2 2 2 2 3 4 4 5 5
4 3 3 5 6 7 6 6 7 5 3 3 3 3 3 3 3 4 4 4 5 5 4 5 3 4 3 2 2 2 2 2 2 2 2 3 4 6
3 5 5 6 5 5 7 8 6 4 3 4 4 5 5 5 4 3 3 2 2 2 3 3 4 3 3 3 3 2 2 2 3 3 3 3 3 3
2 2 3 5 4 4 4 4 4 4 5 5 4 4 3 3 3 3 3 3 2 2 2 2 3 4 4 3 3 3 3 3 3 4 3 3 3 4
3 1 1 1 2 2 2 3 3 3 4 3 3 3 3 3 3 3 3 3 3 4 3 2 2 2 3 3 2 3 3 3 3 3 3 3 4 5
5 3 3 4 4 4 4 4 3 4 4 4 4 4 4 4 3 2 3 3 4 4 4 3 1 0 1 2 4 4 3 3 3 3 3 3 4 4
5 4 5 5 5 5 5 4 4 4 4 4 4 4 4 4 3 3 3 3 4 4 4 3 3 3 3 4 4 5 5 3 2 2 3 3 5 5
5 5 5 5 5 5 5 4 4 3 3 4 4 4 4 4 4 4 4 5 4 4 3 3 4 5 7 6 4 3 6 5 3 3 3 3 3 4
5 5 5 5 5 5 4 4 4 4 4 4 4 4 4 4 4 4 4 5 5 4 5 5 7 7 3 2 1 3 3 6 6 4 4 2 2 2
5 5 5 4 4 4 4 4 4 4 4 4 4 4 4 4 5 5 4 4 4 5 5 4 3 3 3 4 5 5 4 3 4 6 7 7 5 5
5 5 4 4 4 4 4 4 4 4 4 4 4 4 4 4 4 4 5 5 4 4 4 3 2 3 4 5 5 4 5 4 2 2 4 7 9 9
Wind_Direction
177 170 166 190 165 161 154 155 153 167 215 233 239 235 152 132 132 131 143 133 131 125 121 115 106 94 86 95 93 83 77 76 71 68 65 65 68 82
172 157 175 190 173 152 161 165 156 158 181 209 210 201 158 146 143 143 143 134 141 138 133 123 114 112 109 100 99 95 91 89 83 79 74 73 74 81
191 169 193 178 155 152 154 153 156 148 153 190 184 133 122 131 127 116 127 138 150 150 145 137 127 119 115 108 99 104 107 105 97 86 78 78 81 84
195 175 197 173 161 170 155 154 161 158 152 162 172 129 124 153 149 143 130 122 121 139 144 137 129 124 119 115 114 110 117 121 115 106 95 90 91 92
183 182 197 172 184 186 170 166 169 160 146 151 164 156 129 147 128 129 114 92 146 153 158 147 142 142 145 139 136 131 150 162 165 146 119 103 101 103
182 186 193 185 190 183 176 177 162 148 142 143 148 155 151 155 139 142 126 161 212 165 140 138 159 162 169 174 172 172 190 198 198 186 173 168 161 138
185 191 193 178 180 180 175 175 166 160 154 155 162 157 165 169 183 180 174 179 279 189 135 226 216 261 232 220 217 214 214 214 211 203 203 204 199 194
192 197 188 171 166 168 172 174 172 170 172 171 179 183 196 192 183 178 165 160 236 230 167 230 191 237 247 242 242 233 228 225 219 211 211 213 212 213
192 193 203 191 172 167 159 161 173 178 176 175 180 197 194 193 178 181 184 185 210 203 163 231 224 236 245 246 239 238 236 233 226 218 216 215 212 213
198 194 191 194 188 168 159 160 183 197 197 187 190 201 198 190 185 187 191 185 218 194 160 201 225 233 244 245 242 237 237 239 235 229 224 219 215 216
212 201 190 193 199 177 163 170 183 220 207 186 187 190 189 187 175 151 156 157 212 233 194 179 211 226 247 254 249 237 233 239 242 239 233 226 218 217
217 216 204 198 198 184 177 176 190 211 190 181 184 196 196 191 181 178 177 176 185 229 209 179 190 155 254 261 247 244 235 244 244 242 239 231 213 199
205 217 220 201 199 194 189 193 201 191 185 188 197 199 195 202 207 204 191 184 189 220 206 172 180 175 190 249 265 242 224 235 233 243 237 229 209 189
207 209 210 202 201 198 200 205 198 183 176 181 197 209 208 211 215 210 208 209 209 211 201 173 177 185 180 205 256 254 231 228 214 223 230 226 223 218
214 207 207 205 206 207 208 202 195 187 185 195 211 219 214 209 200 199 211 217 235 234 202 189 181 183 181 199 216 216 229 236 213 214 215 212 212 203
196 200 209 211 208 210 207 200 198 196 193 204 216 221 207 197 199 192 195 198 209 259 261 222 199 183 194 208 197 206 203 214 219 216 212 219 217 207
170 146 150 179 213 227 224 215 204 195 203 208 210 215 210 203 208 198 187 186 202 222 240 253 237 216 204 188 199 221 217 226 226 206 198 221 231 222
160 181 200 207 214 216 217 222 218 212 209 204 206 207 211 211 210 201 189 193 208 220 223 220 195 162 331 274 212 208 216 226 229 208 196 214 244 239
181 205 209 212 218 218 216 214 218 219 209 205 210 211 212 210 203 205 205 207 217 222 222 206 190 183 209 250 261 211 202 218 209 210 215 216 237 244
208 212 216 216 215 216 215 215 219 218 211 211 211 210 206 206 208 208 208 211 218 222 225 217 208 205 211 221 231 244 208 195 195 213 225 232 254 266
216 218 219 217 217 218 215 211 209 210 211 207 208 209 205 202 209 213 212 215 215 216 223 230 230 222 210 152 225 262 246 214 202 201 198 206 249 261
221 223 224 220 214 212 208 206 207 208 205 205 210 211 208 204 209 212 211 212 217 220 227 236 225 190 184 202 227 240 249 256 242 232 213 197 192 208
219 222 225 223 215 206 201 204 207 212 211 211 214 214 209 211 212 213 216 215 215 219 226 229 217 206 212 214 221 229 234 236 231 238 253 246 236 238